SCP
0 0 0 0 0 0 0 0 0 0 0 0 0 0 0 0 0 0 0 0 0 0 0 0 0 0 0 0 0 0 0 0 0 0 0 0 0 0 0 0 0 0 0 0 0 0 0
0 0 -0 0 0 0 0 0 0 0 0 0 0 0 0 0 0 0 0 0 0 0 0 0 0 0 0 0 0 0 0 0 0 0 0 0 0 0 0 0 0 0 0 0 0 0 0
-0 -0 -0 0 0 0 0 0 0 0 0 0 0 0 0 0 0 0 0 0 0 0 0 0 0 0 0 0 0 0 0 0 0 0 0 0 0 0 0 0 0 0 0 0 0 0 0
-0 -0 -0 -0 0 0 0 0 0 0 0 0 0 -0 -0 0 0 0 0 0 0 0 0 0 0 0 0 0 0 0 0 0 0 0 0 0 0 0 0 0 0 0 0 0 0 0 0
-0 -0 -0 0 0 0 0 0 0 0 0 -0 -0 -0 -0 0 0 0 0 0 0 0 0 0 0 0 0 0 0 0 0 0 0 0 0 0 0 0 0 0 0 0 0 0 0 0 0
-0 -0 -0 0 0 0 0 0 0 0 0 0 0 -0 0 -0 0 0 0 0 0 0 0 0 0 0 0 0 0 0 0 0 0 0 0 0 0 0 0 0 0 0 0 0 0 0 0
-0 -0 -0 -0 0 0 0 0 0 0 0 0 0 0 0 0 0 0 0 0 0 0 0 0 0 0 0 0 0 0 0 0 0 0 0 0 0 0 0 0 0 0 0 0 0 0 0
-0 -0 -0 -0 0 0 0 0 0 0 0 0 0 0 0 0 0 0 0 0 0 0 0 0 0 0 0 0 0 0 0 0 0 0 0 0 0 0 0 0 0 0 0 0 0 0 0
-0 -0 -0 -0 -0 0 0 0 0 0 0 0 0 0 0 0 0 0 0 0 0 0 0 0 0 0 0 0 0 0 0 0 0 0 0 0 0 0 0 0 0 0 0 0 0 0 0
0 -0 -0 -0 -0 -0 0 0 -0 0 0 0 0 0 0 0 0 0 0 0 0 0 0 0 0 0 0 0 0 0 0 0 0 0 0 0 0 0 0 0 0 0 0 0 0 0 0
0 0 -0 -0 -0 0 -0 -0 -0 0 0 0 0 0 0 0 0 0 0 0 0 0 0 0 0 0 0 0 0 0 0 0 0 0 0 0 0 0 0 0 0 0 0 0 0 0 0
0 0 0 -0 -0 0 0 -0 -0 0 0 0 0 0 0 0 0 0 0 0 0 0 0 0 0 0 0 0 0 0 0 0 0 0 0 0 0 0 0 0 0 0 0 0 0 0 0
0 0 -0 -0 -0 -0 -0 0 -0 0 -0 -0 0 0 0 0 0 0 0 0 0 0 0 0 0 0 0 0 0 0 0 0 0 0 0 0 0 0 0 0 0 0 0 0 0 0 0
0 0 -0 -0 -0 -0 -0 -0 0 0 0 -0 0 0 0 0 0 0 0 0 0 0 0 0 0 0 0 0 0 0 0 0 0 0 0 0 0 0 0 0 0 0 0 0 0 0 0
0 0 0 -0 -0 -0 -0 -0 0 0 0 0 0 0 0 0 0 0 0 0 0 0 0 0 0 0 0 0 0 0 0 0 0 0 0 0 0 0 0 0 0 0 0 0 0 0 0
0 0 0 0 -0 -0 -0 0 -0 0 0 0 0 0 0 0 -0 0 0 0 0 0 0 0 0 0 0 0 0 0 0 0 0 0 0 0 0 0 0 0 0 0 0 0 0 0 0
0 0 0 0 0 -0 -0 0 0 0 0 0 0 0 0 0 0 0 0 0 0 0 0 0 0 0 0 0 0 0 0 0 0 0 0 0 0 0 0 0 0 0 0 0 0 0 0
0 0 0 0 0 0 0 0 0 0 0 -0 0 0 0 0 0 0 0 0 0 0 0 0 0 0 0 0 0 0 0 0 0 0 0 0 0 0 0 0 0 0 0 0 0 0 0
0 0 0 0 0 0 0 0 0 0 0 0 0 0 0 0 0 0 0 0 0 0 0 0 0 0 0 0 0 0 0 0 0 0 0 0 0 0 0 0 0 0 0 0 0 0 0
0 0 0 0 0 0 0 0 0 0 0 0 0 0 0 0 0 0 0 0 0 0 0 0 0 0 0 0 0 0 0 0 0 0 0 0 0 0 0 0 0 0 0 0 0 0 0
0 0 0 0 0 0 0 0 0 0 0 0 0 0 0 0 0 0 0 0 0 0 0 0 0 0 0 0 0 0 0 0 0 0 0 0 0 0 0 0 0 0 0 0 0 0 0
0 0 0 0 0 0 0 0 0 0 0 0 0 0 0 0 0 0 0 0 0 0 0 0 0 0 0 0 0 0 0 0 0 0 0 0 0 0 0 0 0 0 0 0 0 0 0
0 0 0 0 0 0 0 0 0 0 0 0 0 0 0 0 0 0 0 0 0 0 0 0 0 0 0 0 0 0 0 0 0 0 0 0 0 0 0 0 0 0 0 0 0 0 0
0 0 0 0 0 0 0 0 0 0 0 0 0 0 0 0 0 0 0 0 0 0 0 0 0 0 0 0 0 0 0 0 0 0 0 0 0 0 0 0 0 0 0 0 0 0 0
0 0 0 0 0 0 0 0 0 0 0 0 0 0 0 0 0 0 0 0 0 0 0 0 0 0 0 0 0 0 0 0 0 0 0 0 0 0 0 0 0 0 0 0 0 0 0
0 0 0 0 0 0 0 0 0 0 0 0 0 0 0 0 0 0 0 0 0 0 0 0 0 0 0 0 0 0 0 0 0 0 0 0 0 0 0 0 0 0 0 0 0 0 0
0 0 0 0 0 0 0 0 0 0 0 0 0 0 0 0 0 0 0 0 0 0 0 0 0 0 0 0 0 0 0 0 0 0 0 0 0 0 0 0 0 0 0 0 0 0 0
0 0 0 0 0 0 0 0 0 0 0 0 0 0 0 0 0 0 0 0 0 0 0 0 0 0 0 0 0 0 0 0 0 0 0 0 0 0 0 0 0 0 0 0 0 0 0
0 0 0 0 0 0 0 0 0 0 0 0 0 0 0 0 0 0 0 0 0 0 0 0 0 0 0 0 0 0 0 0 0 0 0 0 0 0 0 0 0 0 0 0 0 0 0
Wind_Speed_500mb
21 24 26 24 25 25 26 33 31 22 28 29 28 28 28 27 27 26 25 25 25 24 26 26 24 20 16 16 23 7 19 24 24 20 18 11 10 5 9 4 1 6 4 10 11 10 10
22 26 23 25 29 24 28 26 23 22 25 26 30 22 24 27 25 26 26 23 25 25 26 25 20 18 15 12 13 11 15 21 24 21 23 16 6 5 7 12 4 7 8 12 7 9 8
25 26 26 26 27 27 25 27 23 25 20 24 29 30 26 28 26 26 25 24 26 24 23 21 17 17 22 30 12 10 15 19 25 19 16 23 8 4 11 8 4 17 2 4 3 7 5
27 25 28 26 28 26 25 26 23 20 23 23 33 35 32 28 26 25 25 25 25 20 18 17 14 16 18 19 16 14 15 17 18 16 15 18 3 7 1 20 10 10 9 5 0 7 1
26 26 28 29 28 26 25 26 20 16 21 26 29 40 35 29 26 25 25 22 20 18 16 11 11 13 13 16 15 16 14 14 15 12 14 13 6 8 8 10 9 11 5 5 16 9 5
27 27 27 30 30 26 20 23 14 11 11 15 13 22 26 24 24 23 19 16 12 13 15 6 11 7 12 14 17 15 13 16 11 17 13 7 6 6 7 7 10 11 6 6 9 2 1
28 26 32 32 27 19 15 18 10 7 6 9 11 17 21 19 17 14 10 8 8 6 19 17 6 7 9 24 18 12 15 14 10 8 6 5 9 12 20 7 6 9 7 7 5 4 6
32 27 32 27 20 11 10 11 7 6 8 8 9 14 12 11 10 10 17 9 2 7 12 30 25 21 15 15 12 11 13 8 6 5 9 10 10 7 8 10 7 5 5 7 7 2 7
32 30 31 24 12 8 9 9 6 7 10 11 8 10 12 10 12 13 18 3 12 12 5 4 9 5 14 8 8 7 8 5 4 6 7 11 3 12 9 8 8 3 6 5 7 8 1
36 30 25 17 9 10 8 12 12 9 13 14 10 9 14 13 7 5 5 9 6 7 8 8 2 3 6 9 9 8 9 5 3 10 13 3 3 6 7 5 7 2 2 4 4 7 6
37 29 21 12 10 11 12 13 17 16 15 18 16 13 15 13 4 1 7 8 5 3 9 4 1 7 9 10 11 6 10 4 5 4 8 5 3 4 5 3 3 4 8 7 5 6 5
34 29 18 9 12 13 14 15 18 20 18 21 23 17 14 4 3 5 11 5 4 6 5 3 3 3 9 8 5 6 3 8 5 8 9 3 4 6 4 7 7 11 9 13 9 5 3
35 26 19 10 13 15 17 18 19 22 19 20 19 17 11 4 6 12 8 3 8 8 2 2 6 5 6 1 4 5 7 10 4 7 2 8 5 4 5 7 6 9 10 7 8 6 9
32 28 18 12 14 17 18 21 21 22 23 19 16 16 10 6 16 13 4 6 9 3 5 4 7 8 8 9 5 6 6 4 9 7 5 8 7 4 8 3 9 4 10 9 7 4 7
26 28 19 13 14 19 21 22 24 23 23 21 19 13 9 8 8 5 4 6 6 2 4 8 6 6 3 4 9 9 5 5 1 7 9 7 3 3 8 4 4 4 4 4 11 6 3
29 24 23 15 17 21 23 24 24 24 21 22 20 10 8 9 4 2 7 6 2 2 5 1 5 4 7 3 5 5 5 2 2 3 1 6 3 4 3 5 11 3 9 7 6 4 6
32 24 23 18 19 23 25 25 26 26 25 19 14 6 7 8 4 1 5 8 3 2 3 5 3 5 4 7 8 6 7 3 2 2 6 6 6 3 3 4 12 3 1 10 8 7 7
28 30 22 22 19 27 28 27 28 29 30 25 8 1 10 10 3 4 3 4 1 3 6 6 7 5 8 7 6 5 9 3 1 1 6 2 8 6 6 1 2 3 7 9 9 7 3
23 32 26 21 20 29 31 30 30 32 31 21 5 2 10 14 4 3 6 2 4 4 6 5 4 4 3 6 5 4 5 3 4 3 6 7 2 4 9 8 3 5 6 8 10 6 10
25 29 31 21 19 27 33 33 34 38 34 24 7 1 5 10 5 10 7 4 2 5 4 6 4 4 5 5 10 9 5 4 4 5 9 5 5 8 10 5 2 3 6 7 9 6 7
36 29 33 25 17 25 34 35 38 41 38 21 9 5 7 4 6 7 5 7 5 2 4 3 5 4 4 5 4 6 4 3 6 4 6 6 3 3 6 6 2 5 8 10 12 9 11
46 32 33 30 19 22 34 37 42 43 41 30 7 7 7 3 4 12 2 10 11 4 3 1 5 5 5 7 2 13 10 6 4 4 5 7 1 3 3 5 7 9 14 12 8 6 13
50 39 35 34 26 20 32 40 43 47 45 23 21 10 5 2 5 8 8 11 13 16 5 5 7 8 9 4 15 19 16 21 15 11 5 5 7 5 7 8 12 12 8 11 7 7 9
49 49 38 38 32 25 25 40 46 48 49 28 20 13 9 4 5 9 11 6 9 6 14 4 11 9 15 38 40 33 40 38 33 22 8 8 7 4 5 7 2 9 4 2 7 6 4
50 56 43 43 39 33 26 32 46 52 51 50 24 17 10 4 4 3 14 12 22 14 9 8 6 15 42 12 7 7 7 3 9 10 12 9 8 6 5 3 12 4 2 7 6 6 11
55 58 50 48 45 41 33 28 37 50 53 54 41 23 8 13 11 9 11 15 9 6 4 6 19 29 17 7 6 6 6 6 2 3 7 10 12 8 4 7 8 9 4 8 8 9 16
63 60 58 53 50 46 41 34 30 37 49 52 42 39 16 7 15 18 8 12 14 11 8 9 13 9 6 4 5 5 5 5 5 8 7 5 6 9 5 6 16 11 9 8 5 12 20
70 65 63 56 55 50 47 41 35 33 37 45 44 34 36 11 17 16 13 12 16 15 9 19 11 3 5 6 6 7 5 8 3 6 10 12 11 7 5 3 13 16 7 13 7 18 13
73 66 64 59 60 54 49 46 41 39 37 38 31 33 36 11 12 15 14 16 14 19 17 35 5 12 18 8 3 7 3 4 7 6 1 5 12 9 16 12 7 24 7 11 13 16 9
Wind_Direction_500mb
291 283 291 296 290 289 290 270 278 268 280 273 253 254 246 243 247 257 263 264 269 271 278 277 269 260 248 236 236 219 185 201 206 205 196 183 256 171 112 46 93 100 124 94 120 131 117
310 303 296 296 299 294 294 292 284 268 275 273 246 246 241 239 242 250 261 265 270 275 278 273 257 254 240 246 222 215 201 197 194 201 203 207 251 152 109 75 86 77 97 109 127 127 132
302 301 297 294 294 295 290 295 279 268 264 275 245 239 243 239 242 248 258 267 274 277 272 258 247 250 237 219 196 206 201 189 187 196 202 204 239 243 124 112 108 96 21 47 154 169 142
302 303 300 297 291 291 292 290 283 270 251 254 247 236 239 242 246 252 261 268 272 271 252 237 237 248 246 212 202 200 191 175 176 195 209 200 141 148 64 115 40 62 47 41 274 149 100
312 310 302 302 297 291 287 285 288 275 265 245 251 225 231 240 247 252 258 266 265 251 227 205 241 229 257 190 195 182 174 159 157 176 182 180 192 70 74 76 31 6 204 215 320 196 123
313 310 310 300 293 287 287 282 284 280 262 245 225 216 228 239 243 248 258 260 246 215 204 166 224 256 236 178 168 175 166 151 134 146 135 151 91 91 49 104 203 209 199 238 239 207 94
317 314 307 297 290 284 282 273 273 252 245 202 212 221 223 227 234 249 245 187 181 189 212 190 223 276 159 140 138 148 164 149 132 149 120 75 91 195 208 198 116 139 169 221 238 213 173
325 315 305 297 286 270 261 253 255 206 202 170 209 203 205 215 215 202 190 207 159 25 274 242 268 266 148 135 112 115 148 125 146 155 115 49 222 236 128 161 157 150 169 256 282 105 170
323 318 309 293 269 232 240 193 212 179 160 151 190 193 155 163 172 195 209 301 326 298 235 95 153 141 137 124 87 96 147 132 120 134 160 148 232 138 135 136 132 142 176 211 238 337 73
329 320 311 283 238 206 208 185 169 172 151 141 140 159 146 142 152 193 185 343 333 330 84 309 56 92 127 115 57 80 120 140 68 163 151 123 355 123 92 109 118 240 297 118 71 50 263
335 325 308 272 208 203 174 192 164 158 164 147 141 155 161 155 77 183 314 315 296 283 88 236 253 110 123 94 138 38 78 81 113 100 104 218 99 99 94 110 123 171 66 62 64 87 15
338 328 315 263 203 192 183 179 174 158 169 161 157 170 183 210 321 319 323 269 246 61 118 139 74 61 79 45 58 104 100 77 84 81 39 59 44 57 96 62 66 143 76 46 52 76 354
337 330 317 269 208 197 189 181 179 169 172 168 169 170 194 258 327 329 336 278 34 75 309 184 127 99 89 245 84 67 45 26 88 92 9 16 17 5 79 91 43 72 61 335 346 10 225
337 331 317 281 215 203 196 189 183 185 175 178 177 183 222 268 307 315 306 44 44 201 211 120 102 111 142 177 45 64 70 68 30 71 103 145 315 21 354 88 169 94 145 156 244 227 276
331 328 315 282 231 209 204 196 192 191 190 182 181 194 261 257 303 310 326 50 220 248 313 118 95 92 64 78 109 80 63 160 359 20 142 130 277 6 48 34 77 160 158 169 104 25 36
314 323 314 281 240 215 210 200 197 190 199 190 187 213 238 231 264 312 70 244 220 309 332 168 117 117 146 162 100 116 174 276 151 48 44 173 101 9 2 98 42 116 153 71 14 215 267
302 306 309 291 244 221 210 205 193 190 184 193 185 226 214 216 213 304 161 222 241 20 9 34 137 101 114 143 141 169 176 319 3 59 59 116 96 286 45 185 178 73 53 54 114 127 177
291 291 294 297 250 224 213 204 198 190 181 178 190 7 182 189 57 29 176 225 15 21 33 39 83 86 143 151 117 134 189 27 9 30 120 10 133 195 193 84 199 177 184 146 125 219 91
273 281 281 288 268 219 212 204 202 190 183 177 220 193 186 184 157 263 279 339 65 42 35 51 77 33 44 121 113 108 103 15 31 70 143 186 22 36 354 12 6 217 173 107 105 93 195
260 270 271 272 272 219 208 203 200 191 185 185 191 88 161 195 166 147 169 192 128 43 71 70 115 82 104 88 25 145 118 31 34 83 77 97 112 155 186 195 161 249 172 144 119 116 185
256 254 261 258 259 221 207 201 197 194 191 187 208 229 172 209 239 163 137 135 129 175 67 61 53 74 129 110 84 112 109 114 45 57 55 88 145 178 247 257 289 253 234 174 194 194 180
252 246 250 249 242 220 208 201 195 197 197 207 209 169 169 132 158 128 164 207 158 149 100 324 106 95 58 117 178 192 135 185 181 42 63 8 107 31 320 20 5 278 251 226 227 216 259
251 244 239 241 234 219 207 203 198 198 200 204 216 217 194 166 133 118 214 175 189 134 59 91 138 104 73 80 103 99 103 102 129 138 126 92 119 72 272 349 326 304 249 192 192 180 172
252 245 232 232 230 221 206 203 202 201 207 205 207 196 188 227 171 202 155 128 148 168 144 122 135 114 140 125 102 89 80 78 71 49 68 125 98 80 245 5 16 249 329 307 224 220 185
252 248 232 227 224 220 207 202 204 204 204 211 219 210 207 176 178 124 130 118 115 102 78 96 67 128 149 140 73 66 360 85 36 36 24 43 115 82 110 194 289 295 197 183 170 296 185
258 250 235 223 221 218 211 204 202 207 206 211 217 220 217 141 233 149 137 163 144 124 70 84 116 142 161 85 77 128 207 209 270 68 60 62 67 106 97 119 221 241 164 142 106 283 184
259 252 237 222 221 216 213 207 201 201 207 212 217 220 223 201 167 164 164 178 153 121 107 138 157 156 165 90 95 143 222 167 183 181 165 53 25 148 155 215 284 233 183 136 105 243 161
249 249 237 224 218 215 214 209 204 198 201 208 217 221 208 204 165 183 173 157 153 167 142 151 105 208 63 88 128 196 141 216 125 179 185 175 145 186 92 84 283 183 127 177 182 122 142
245 246 234 225 216 215 214 213 207 202 197 198 207 209 199 198 149 162 161 170 175 167 147 167 156 160 165 97 163 106 117 88 156 242 296 241 187 180 179 215 218 193 236 168 154 148 153
Wind_Speed_850mb
21 24 26 24 25 25 26 33 31 22 28 29 28 28 28 27 27 26 25 25 25 24 26 26 24 20 16 16 23 7 19 24 24 20 18 11 10 5 9 4 1 6 4 10 11 10 10
22 26 23 25 29 24 28 26 23 22 25 26 30 22 24 27 25 26 26 23 25 25 26 25 20 18 15 12 13 11 15 21 24 21 23 16 6 5 7 12 4 7 8 12 7 9 8
25 26 26 26 27 27 25 27 23 25 20 24 29 30 26 28 26 26 25 24 26 24 23 21 17 17 22 30 12 10 15 19 25 19 16 23 8 4 11 8 4 17 2 4 3 7 5
27 25 28 26 28 26 25 26 23 20 23 23 33 35 32 28 26 25 25 25 25 20 18 17 14 16 18 19 16 14 15 17 18 16 15 18 3 7 1 20 10 10 9 5 0 7 1
26 26 28 29 28 26 25 26 20 16 21 26 29 40 35 29 26 25 25 22 20 18 16 11 11 13 13 16 15 16 14 14 15 12 14 13 6 8 8 10 9 11 5 5 16 9 5
27 27 27 30 30 26 20 23 14 11 11 15 13 22 26 24 24 23 19 16 12 13 15 6 11 7 12 14 17 15 13 16 11 17 13 7 6 6 7 7 10 11 6 6 9 2 1
28 26 32 32 27 19 15 18 10 7 6 9 11 17 21 19 17 14 10 8 8 6 19 17 6 7 9 24 18 12 15 14 10 8 6 5 9 12 20 7 6 9 7 7 5 4 6
32 27 32 27 20 11 10 11 7 6 8 8 9 14 12 11 10 10 17 9 2 7 12 30 25 21 15 15 12 11 13 8 6 5 9 10 10 7 8 10 7 5 5 7 7 2 7
32 30 31 24 12 8 9 9 6 7 10 11 8 10 12 10 12 13 18 3 12 12 5 4 9 5 14 8 8 7 8 5 4 6 7 11 3 12 9 8 8 3 6 5 7 8 1
36 30 25 17 9 10 8 12 12 9 13 14 10 9 14 13 7 5 5 9 6 7 8 8 2 3 6 9 9 8 9 5 3 10 13 3 3 6 7 5 7 2 2 4 4 7 6
37 29 21 12 10 11 12 13 17 16 15 18 16 13 15 13 4 1 7 8 5 3 9 4 1 7 9 10 11 6 10 4 5 4 8 5 3 4 5 3 3 4 8 7 5 6 5
34 29 18 9 12 13 14 15 18 20 18 21 23 17 14 4 3 5 11 5 4 6 5 3 3 3 9 8 5 6 3 8 5 8 9 3 4 6 4 7 7 11 9 13 9 5 3
35 26 19 10 13 15 17 18 19 22 19 20 19 17 11 4 6 12 8 3 8 8 2 2 6 5 6 1 4 5 7 10 4 7 2 8 5 4 5 7 6 9 10 7 8 6 9
32 28 18 12 14 17 18 21 21 22 23 19 16 16 10 6 16 13 4 6 9 3 5 4 7 8 8 9 5 6 6 4 9 7 5 8 7 4 8 3 9 4 10 9 7 4 7
26 28 19 13 14 19 21 22 24 23 23 21 19 13 9 8 8 5 4 6 6 2 4 8 6 6 3 4 9 9 5 5 1 7 9 7 3 3 8 4 4 4 4 4 11 6 3
29 24 23 15 17 21 23 24 24 24 21 22 20 10 8 9 4 2 7 6 2 2 5 1 5 4 7 3 5 5 5 2 2 3 1 6 3 4 3 5 11 3 9 7 6 4 6
32 24 23 18 19 23 25 25 26 26 25 19 14 6 7 8 4 1 5 8 3 2 3 5 3 5 4 7 8 6 7 3 2 2 6 6 6 3 3 4 12 3 1 10 8 7 7
28 30 22 22 19 27 28 27 28 29 30 25 8 1 10 10 3 4 3 4 1 3 6 6 7 5 8 7 6 5 9 3 1 1 6 2 8 6 6 1 2 3 7 9 9 7 3
23 32 26 21 20 29 31 30 30 32 31 21 5 2 10 14 4 3 6 2 4 4 6 5 4 4 3 6 5 4 5 3 4 3 6 7 2 4 9 8 3 5 6 8 10 6 10
25 29 31 21 19 27 33 33 34 38 34 24 7 1 5 10 5 10 7 4 2 5 4 6 4 4 5 5 10 9 5 4 4 5 9 5 5 8 10 5 2 3 6 7 9 6 7
36 29 33 25 17 25 34 35 38 41 38 21 9 5 7 4 6 7 5 7 5 2 4 3 5 4 4 5 4 6 4 3 6 4 6 6 3 3 6 6 2 5 8 10 12 9 11
46 32 33 30 19 22 34 37 42 43 41 30 7 7 7 3 4 12 2 10 11 4 3 1 5 5 5 7 2 13 10 6 4 4 5 7 1 3 3 5 7 9 14 12 8 6 13
50 39 35 34 26 20 32 40 43 47 45 23 21 10 5 2 5 8 8 11 13 16 5 5 7 8 9 4 15 19 16 21 15 11 5 5 7 5 7 8 12 12 8 11 7 7 9
49 49 38 38 32 25 25 40 46 48 49 28 20 13 9 4 5 9 11 6 9 6 14 4 11 9 15 38 40 33 40 38 33 22 8 8 7 4 5 7 2 9 4 2 7 6 4
50 56 43 43 39 33 26 32 46 52 51 50 24 17 10 4 4 3 14 12 22 14 9 8 6 15 42 12 7 7 7 3 9 10 12 9 8 6 5 3 12 4 2 7 6 6 11
55 58 50 48 45 41 33 28 37 50 53 54 41 23 8 13 11 9 11 15 9 6 4 6 19 29 17 7 6 6 6 6 2 3 7 10 12 8 4 7 8 9 4 8 8 9 16
63 60 58 53 50 46 41 34 30 37 49 52 42 39 16 7 15 18 8 12 14 11 8 9 13 9 6 4 5 5 5 5 5 8 7 5 6 9 5 6 16 11 9 8 5 12 20
70 65 63 56 55 50 47 41 35 33 37 45 44 34 36 11 17 16 13 12 16 15 9 19 11 3 5 6 6 7 5 8 3 6 10 12 11 7 5 3 13 16 7 13 7 18 13
73 66 64 59 60 54 49 46 41 39 37 38 31 33 36 11 12 15 14 16 14 19 17 35 5 12 18 8 3 7 3 4 7 6 1 5 12 9 16 12 7 24 7 11 13 16 9
Wind_Direction_850mb
291 283 291 296 290 289 290 270 278 268 280 273 253 254 246 243 247 257 263 264 269 271 278 277 269 260 248 236 236 219 185 201 206 205 196 183 256 171 112 46 93 100 124 94 120 131 117
310 303 296 296 299 294 294 292 284 268 275 273 246 246 241 239 242 250 261 265 270 275 278 273 257 254 240 246 222 215 201 197 194 201 203 207 251 152 109 75 86 77 97 109 127 127 132
302 301 297 294 294 295 290 295 279 268 264 275 245 239 243 239 242 248 258 267 274 277 272 258 247 250 237 219 196 206 201 189 187 196 202 204 239 243 124 112 108 96 21 47 154 169 142
302 303 300 297 291 291 292 290 283 270 251 254 247 236 239 242 246 252 261 268 272 271 252 237 237 248 246 212 202 200 191 175 176 195 209 200 141 148 64 115 40 62 47 41 274 149 100
312 310 302 302 297 291 287 285 288 275 265 245 251 225 231 240 247 252 258 266 265 251 227 205 241 229 257 190 195 182 174 159 157 176 182 180 192 70 74 76 31 6 204 215 320 196 123
313 310 310 300 293 287 287 282 284 280 262 245 225 216 228 239 243 248 258 260 246 215 204 166 224 256 236 178 168 175 166 151 134 146 135 151 91 91 49 104 203 209 199 238 239 207 94
317 314 307 297 290 284 282 273 273 252 245 202 212 221 223 227 234 249 245 187 181 189 212 190 223 276 159 140 138 148 164 149 132 149 120 75 91 195 208 198 116 139 169 221 238 213 173
325 315 305 297 286 270 261 253 255 206 202 170 209 203 205 215 215 202 190 207 159 25 274 242 268 266 148 135 112 115 148 125 146 155 115 49 222 236 128 161 157 150 169 256 282 105 170
323 318 309 293 269 232 240 193 212 179 160 151 190 193 155 163 172 195 209 301 326 298 235 95 153 141 137 124 87 96 147 132 120 134 160 148 232 138 135 136 132 142 176 211 238 337 73
329 320 311 283 238 206 208 185 169 172 151 141 140 159 146 142 152 193 185 343 333 330 84 309 56 92 127 115 57 80 120 140 68 163 151 123 355 123 92 109 118 240 297 118 71 50 263
335 325 308 272 208 203 174 192 164 158 164 147 141 155 161 155 77 183 314 315 296 283 88 236 253 110 123 94 138 38 78 81 113 100 104 218 99 99 94 110 123 171 66 62 64 87 15
338 328 315 263 203 192 183 179 174 158 169 161 157 170 183 210 321 319 323 269 246 61 118 139 74 61 79 45 58 104 100 77 84 81 39 59 44 57 96 62 66 143 76 46 52 76 354
337 330 317 269 208 197 189 181 179 169 172 168 169 170 194 258 327 329 336 278 34 75 309 184 127 99 89 245 84 67 45 26 88 92 9 16 17 5 79 91 43 72 61 335 346 10 225
337 331 317 281 215 203 196 189 183 185 175 178 177 183 222 268 307 315 306 44 44 201 211 120 102 111 142 177 45 64 70 68 30 71 103 145 315 21 354 88 169 94 145 156 244 227 276
331 328 315 282 231 209 204 196 192 191 190 182 181 194 261 257 303 310 326 50 220 248 313 118 95 92 64 78 109 80 63 160 359 20 142 130 277 6 48 34 77 160 158 169 104 25 36
314 323 314 281 240 215 210 200 197 190 199 190 187 213 238 231 264 312 70 244 220 309 332 168 117 117 146 162 100 116 174 276 151 48 44 173 101 9 2 98 42 116 153 71 14 215 267
302 306 309 291 244 221 210 205 193 190 184 193 185 226 214 216 213 304 161 222 241 20 9 34 137 101 114 143 141 169 176 319 3 59 59 116 96 286 45 185 178 73 53 54 114 127 177
291 291 294 297 250 224 213 204 198 190 181 178 190 7 182 189 57 29 176 225 15 21 33 39 83 86 143 151 117 134 189 27 9 30 120 10 133 195 193 84 199 177 184 146 125 219 91
273 281 281 288 268 219 212 204 202 190 183 177 220 193 186 184 157 263 279 339 65 42 35 51 77 33 44 121 113 108 103 15 31 70 143 186 22 36 354 12 6 217 173 107 105 93 195
260 270 271 272 272 219 208 203 200 191 185 185 191 88 161 195 166 147 169 192 128 43 71 70 115 82 104 88 25 145 118 31 34 83 77 97 112 155 186 195 161 249 172 144 119 116 185
256 254 261 258 259 221 207 201 197 194 191 187 208 229 172 209 239 163 137 135 129 175 67 61 53 74 129 110 84 112 109 114 45 57 55 88 145 178 247 257 289 253 234 174 194 194 180
252 246 250 249 242 220 208 201 195 197 197 207 209 169 169 132 158 128 164 207 158 149 100 324 106 95 58 117 178 192 135 185 181 42 63 8 107 31 320 20 5 278 251 226 227 216 259
251 244 239 241 234 219 207 203 198 198 200 204 216 217 194 166 133 118 214 175 189 134 59 91 138 104 73 80 103 99 103 102 129 138 126 92 119 72 272 349 326 304 249 192 192 180 172
252 245 232 232 230 221 206 203 202 201 207 205 207 196 188 227 171 202 155 128 148 168 144 122 135 114 140 125 102 89 80 78 71 49 68 125 98 80 245 5 16 249 329 307 224 220 185
252 248 232 227 224 220 207 202 204 204 204 211 219 210 207 176 178 124 130 118 115 102 78 96 67 128 149 140 73 66 360 85 36 36 24 43 115 82 110 194 289 295 197 183 170 296 185
258 250 235 223 221 218 211 204 202 207 206 211 217 220 217 141 233 149 137 163 144 124 70 84 116 142 161 85 77 128 207 209 270 68 60 62 67 106 97 119 221 241 164 142 106 283 184
259 252 237 222 221 216 213 207 201 201 207 212 217 220 223 201 167 164 164 178 153 121 107 138 157 156 165 90 95 143 222 167 183 181 165 53 25 148 155 215 284 233 183 136 105 243 161
249 249 237 224 218 215 214 209 204 198 201 208 217 221 208 204 165 183 173 157 153 167 142 151 105 208 63 88 128 196 141 216 125 179 185 175 145 186 92 84 283 183 127 177 182 122 142
245 246 234 225 216 215 214 213 207 202 197 198 207 209 199 198 149 162 161 170 175 167 147 167 156 160 165 97 163 106 117 88 156 242 296 241 187 180 179 215 218 193 236 168 154 148 153